Weather History for Burlington, VT

Change the Weather History Date:

Sunday, October 7, 2012

  Actual Average Record
Temperature  
Mean Temperature 49 °F 51 °F  
Max Temperature 53 °F 61 °F 83 °F (1947)
Min Temperature 44 °F 42 °F 25 °F (1964)
Degree Days  
Heating Degree Days 16 14  
Month to date heating degree days 48 88  
Since 1 July heating degree days 195 305  
Cooling Degree Days 0 0  
Month to date cooling degree days 1 0  
Year to date cooling degree days 747 489  
Moisture  
Dew Point 37 °F    
Average Humidity 73    
Maximum Humidity 92    
Minimum Humidity 54    
Precipitation  
Precipitation 0.29 in 0.12 in 1.37 in (1959)
Month to date precipitation 2.00 0.87  
Year to date precipitation 28.36 28.58  
Snow  
Snow 0.00 in 0.00 in T in (2001)
Month to date snowfall 0.0 0.0  
Since 1 July snowfall 0.0 T  
Since 1 September snowfall 0.0 T  
Snow Depth 0.00 in    
Sea Level Pressure  
Sea Level Pressure 30.03 in    
Wind  
Wind Speed 4 mph (NW)    
Max Wind Speed 17 mph    
Max Gust Speed 23 mph    
Visibility 10 miles    
Events Rain    
T = Trace of Precipitation, MM = Missing Value Source: NWS Daily Summary

Daily Weather History Graph

Daily Weather History Graph

Search for Another Location

Airport:

Trip Planner

Search our weather history database for the weather conditions in past years. The results will help you decide how hot, cold, wet, or windy it might be!

Date:

Astronomy

Oct. 07, 2012 Rise Set
Actual Time 6:58 AM EDT 6:21 PM EDT
Civil Twilight 6:29 AM EDT 6:50 PM EDT
Nautical Twilight 5:55 AM EDT 7:24 PM EDT
Astronomical Twilight 5:21 AM EDT 7:57 PM EDT
Moon 11:21 PM EDT (10/7) 1:43 PM EDT (10/7)
Length of Visible Light 12h 21m
Length of Day
11h 23m
Waning Gibbous, 56% of the Moon is Illuminated
Oct 7
Waning Gibbous
Oct 8
Last Quarter
Oct 15
New
Oct 21
First Quarter
Oct 29
Full

Hourly Weather History & Observations

Time (EDT) Temp. Windchill Dew Point Humidity Pressure Visibility Wind Dir Wind Speed Gust Speed Precip Events Conditions
12:54 AM 51.1 °F - 36.0 °F 56% 29.95 in 10.0 mi West 11.5 mph 24.2 mph N/A   Scattered Clouds
1:54 AM 50.0 °F - 35.1 °F 57% 29.96 in 10.0 mi West 8.1 mph - N/A   Partly Cloudy
2:54 AM 48.2 °F - 33.8 °F 58% 29.95 in 10.0 mi NW 11.5 mph 21.9 mph N/A   Clear
3:54 AM 48.0 °F - 35.1 °F 61% 29.98 in 10.0 mi Calm Calm - N/A   Clear
4:54 AM 46.9 °F - 34.0 °F 61% 30.00 in 10.0 mi WNW 4.6 mph 17.3 mph N/A   Partly Cloudy
5:54 AM 48.0 °F - 35.1 °F 61% 30.01 in 10.0 mi West 10.4 mph - N/A   Overcast
6:54 AM 48.0 °F - 34.0 °F 58% 30.04 in 10.0 mi West 5.8 mph - N/A   Partly Cloudy
7:54 AM 48.0 °F - 34.0 °F 58% 30.04 in 10.0 mi West 5.8 mph - N/A   Partly Cloudy
8:54 AM 48.0 °F - 35.1 °F 61% 30.04 in 10.0 mi WNW 4.6 mph - N/A   Mostly Cloudy
9:54 AM 48.9 °F - 35.1 °F 59% 30.04 in 10.0 mi NW 4.6 mph - N/A   Mostly Cloudy
10:54 AM 50.0 °F - 39.0 °F 66% 30.06 in 10.0 mi NNW 6.9 mph - N/A   Mostly Cloudy
11:54 AM 50.0 °F - 36.0 °F 59% 30.06 in 10.0 mi WNW 4.6 mph - N/A   Mostly Cloudy
12:54 PM 51.8 °F - 35.6 °F 54% 30.05 in 10.0 mi Calm Calm - N/A   Mostly Cloudy
1:54 PM 50.0 °F - 35.1 °F 57% 30.05 in 10.0 mi Calm Calm - 0.00 in Rain Light Rain
2:54 PM 51.1 °F - 37.0 °F 59% 30.03 in 10.0 mi East 3.5 mph - 0.00 in   Mostly Cloudy
3:54 PM 52.0 °F - 37.9 °F 59% 30.02 in 10.0 mi ENE 3.5 mph - N/A   Overcast
4:54 PM 53.1 °F - 37.9 °F 57% 30.01 in 10.0 mi ESE 3.5 mph - N/A   Scattered Clouds
5:54 PM 51.1 °F - 39.0 °F 63% 30.01 in 10.0 mi ENE 3.5 mph - N/A   Mostly Cloudy
6:54 PM 48.9 °F - 39.9 °F 71% 29.99 in 10.0 mi ENE 4.6 mph - N/A   Mostly Cloudy
7:54 PM 48.0 °F - 41.0 °F 77% 30.03 in 10.0 mi NNE 4.6 mph - 0.00 in Rain Light Rain
8:54 PM 46.0 °F - 41.0 °F 83% 30.07 in 6.0 mi Calm Calm - 0.09 in Rain Rain
9:05 PM 46.4 °F - 42.8 °F 87% 30.07 in 3.0 mi Calm Calm - 0.03 in Rain Rain
9:33 PM 44.6 °F 43.1 °F 39.2 °F 81% 30.05 in 10.0 mi ESE 3.5 mph - 0.10 in Rain Light Rain
9:54 PM 45.0 °F - 42.1 °F 90% 30.07 in 8.0 mi Calm Calm - 0.12 in Rain Light Rain
10:54 PM 45.0 °F - 42.1 °F 90% 30.08 in 10.0 mi Calm Calm - 0.03 in Rain Light Rain
11:54 PM 44.1 °F - 41.0 °F 89% 30.09 in 10.0 mi Calm Calm - 0.02 in Rain Light Rain